Weather History for Gulfport, MS

Change the Weather History Date:

Sunday, October 7, 2012

  Actual Average Record
Temperature  
Mean Temperature 67 °F -  
Max Temperature 77 °F 81 °F 89 °F (2002)
Min Temperature 57 °F 61 °F 43 °F (1964)
Cooling Degree Days 2    
Growing Degree Days 17 (Base 50)    
Moisture  
Dew Point 57 °F    
Average Humidity 74    
Maximum Humidity 88    
Minimum Humidity 55    
Precipitation  
Precipitation 0.00 in - - ()
Sea Level Pressure  
Sea Level Pressure 30.05 in    
Wind  
Wind Speed 10 mph (North)    
Max Wind Speed 15 mph    
Max Gust Speed 21 mph    
Visibility 10 miles    
Events      
Averages and records for this station are not official NWS values.
T = Trace of Precipitation, MM = Missing Value Source: NWS Daily Summary

Daily Weather History Graph

Daily Weather History Graph

Search for Another Location

Airport:

Trip Planner

Search our weather history database for the weather conditions in past years. The results will help you decide how hot, cold, wet, or windy it might be!

Date:

Astronomy

Oct. 07, 2012 Rise Set
Actual Time 6:53 AM CDT 6:33 PM CDT
Civil Twilight 6:29 AM CDT 6:57 PM CDT
Nautical Twilight 6:01 AM CDT 7:25 PM CDT
Astronomical Twilight 5:33 AM CDT 7:53 PM CDT
Moon No Moon Rise 1:14 PM CDT (10/7)
Length of Visible Light 12h 28m
Length of Day
11h 40m
Waning Gibbous, 56% of the Moon is Illuminated
Oct 7
Waning Gibbous
Oct 8
Last Quarter
Oct 15
New
Oct 21
First Quarter
Oct 29
Full

Hourly Weather History & Observations

Time (CDT) Temp. Dew Point Humidity Pressure Visibility Wind Dir Wind Speed Gust Speed Precip Events Conditions
12:53 AM 68.0 °F 63.0 °F 84% 30.00 in 10.0 mi North 6.9 mph - N/A   Clear
1:50 AM 66.2 °F 62.6 °F 88% 30.01 in 10.0 mi North 9.2 mph - N/A   Mostly Cloudy
1:53 AM 66.9 °F 63.0 °F 87% 30.01 in 10.0 mi North 9.2 mph - N/A   Mostly Cloudy
2:53 AM 68.0 °F 63.0 °F 84% 30.01 in 10.0 mi North 6.9 mph - N/A   Overcast
3:53 AM 64.0 °F 57.9 °F 80% 30.02 in 10.0 mi North 13.8 mph - N/A   Overcast
4:36 AM 62.6 °F 55.4 °F 77% 30.02 in 10.0 mi North 11.5 mph - N/A   Scattered Clouds
4:53 AM 61.0 °F 55.9 °F 83% 30.03 in 10.0 mi North 10.4 mph - N/A   Clear
5:53 AM 61.0 °F 55.0 °F 81% 30.03 in 10.0 mi North 8.1 mph - N/A   Clear
6:46 AM 60.8 °F 55.4 °F 82% 30.05 in 10.0 mi North 12.7 mph - N/A   Mostly Cloudy
6:53 AM 60.1 °F 55.0 °F 83% 30.05 in 10.0 mi NNW 12.7 mph - N/A   Mostly Cloudy
7:05 AM 60.8 °F 55.4 °F 82% 30.06 in 10.0 mi North 12.7 mph - N/A   Scattered Clouds
7:53 AM 61.0 °F 55.0 °F 81% 30.07 in 10.0 mi North 15.0 mph 19.6 mph N/A   Partly Cloudy
8:53 AM 64.0 °F 55.9 °F 75% 30.09 in 10.0 mi North 12.7 mph - N/A   Scattered Clouds
9:53 AM 64.9 °F 55.9 °F 73% 30.09 in 10.0 mi North 11.5 mph - N/A   Scattered Clouds
10:53 AM 66.0 °F 55.9 °F 70% 30.09 in 10.0 mi North 11.5 mph - N/A   Clear
11:53 AM 70.0 °F 57.9 °F 65% 30.08 in 10.0 mi North 10.4 mph - N/A   Clear
12:53 PM 72.0 °F 57.9 °F 61% 30.05 in 10.0 mi North 11.5 mph 18.4 mph N/A   Clear
1:53 PM 75.0 °F 59.0 °F 57% 30.03 in 10.0 mi North 11.5 mph 18.4 mph N/A   Clear
2:53 PM 75.9 °F 59.0 °F 56% 30.01 in 10.0 mi NNW 9.2 mph - N/A   Clear
3:53 PM 75.0 °F 57.9 °F 55% 30.01 in 10.0 mi North 12.7 mph 17.3 mph N/A   Clear
4:53 PM 71.1 °F 55.9 °F 59% 30.01 in 10.0 mi North 12.7 mph 20.7 mph N/A   Clear
5:53 PM 69.1 °F 55.9 °F 63% 30.02 in 10.0 mi North 13.8 mph 20.7 mph N/A   Clear
6:53 PM 66.0 °F 55.9 °F 70% 30.04 in 10.0 mi North 9.2 mph - N/A   Clear
7:53 PM 64.9 °F 55.9 °F 73% 30.06 in 10.0 mi North 8.1 mph - N/A   Clear
8:53 PM 63.0 °F 54.0 °F 72% 30.08 in 10.0 mi North 11.5 mph - N/A   Clear
9:53 PM 60.1 °F 52.0 °F 75% 30.11 in 10.0 mi North 9.2 mph - N/A   Clear
10:53 PM 59.0 °F 51.1 °F 75% 30.10 in 10.0 mi NNE 8.1 mph - N/A   Clear
11:53 PM 57.9 °F 50.0 °F 75% 30.09 in 10.0 mi North 8.1 mph - N/A   Clear